Tracking 18980 objects as of 22-Feb-2018
HD Live streaming from Space Station
objects crossing your sky now

OPS 2222

Track OPS 2222 now!
OPS 2222 is classified as:


NORAD ID: 3334
Int'l Code: 1968-063A
Perigee: 32,057.4 km
Apogee: 40,109.9 km
Inclination: 13.1 °
Period: 1,450.9 minutes
Semi major axis: 42454 km
RCS: Unknown
Launch date: August 6, 1968
Source: United States (US)
Launch site: AIR FORCE EASTERN TEST RANGE (AFETR)
aabbcc
Your satellite tracking list
Your tracking list is empty




NASA's NSSDC Master Catalog

Two Line Element Set (TLE):
1 03334U 68063A   18039.69614036 0.00000000  00000-0  00000-0 0    05
2 03334  13.0948 319.8026 0948361 144.6696 221.9964  0.99246562    02
Source of the keplerian elements: McCants